Time,TemperatureF,DewpointF,PressureIn,WindDirection,WindDirectionDegrees,WindSpeedMPH,WindSpeedGustMPH,Humidity,HourlyPrecipIn,Conditions,Clouds,dailyrainin,SoftwareType,DateUTC
2013-02-01 00:00:00,48.3,37.5,30.26,NW,318,1.0,2.0,66,0.00,,---,0.08,VWS V14.01,2013-02-01 05:00:00,
2013-02-01 00:01:00,48.3,37.5,30.26,NW,317,0.0,0.0,66,0.00,,---,0.08,VWS V14.01,2013-02-01 05:01:00,
2013-02-01 00:02:00,48.3,37.5,30.26,NNE,32,2.0,3.0,66,0.00,,---,0.00,VWS V14.01,2013-02-01 05:02:00,
2013-02-01 00:07:00,48.1,37.3,30.26,East,86,0.0,0.0,66,0.00,,---,0.00,VWS V14.01,2013-02-01 05:07:00,
2013-02-01 00:12:00,47.6,37.2,30.26,East,86,0.0,0.0,67,0.00,,---,0.00,VWS V14.01,2013-02-01 05:12:00,
2013-02-01 00:17:00,47.3,37.3,30.26,NW,325,0.0,2.0,68,0.00,,---,0.00,VWS V14.01,2013-02-01 05:17:00,
2013-02-01 00:22:00,47.0,37.0,30.26,NW,325,0.0,1.0,68,0.00,,---,0.00,VWS V14.01,2013-02-01 05:22:00,
2013-02-01 00:27:00,47.0,37.0,30.26,NW,313,1.0,1.0,68,0.00,,---,0.00,VWS V14.01,2013-02-01 05:27:00,
2013-02-01 00:32:00,47.3,37.3,30.27,NW,323,1.0,2.0,68,0.00,,---,0.00,VWS V14.01,2013-02-01 05:32:00,
2013-02-01 00:37:00,47.6,37.6,30.26,WNW,297,1.0,2.0,68,0.00,,---,0.00,VWS V14.01,2013-02-01 05:37:00,
2013-02-01 00:42:00,47.6,37.6,30.26,NW,314,2.0,4.0,68,0.00,,---,0.00,VWS V14.01,2013-02-01 05:42:00,
2013-02-01 00:47:00,47.6,37.6,30.26,WNW,301,2.0,3.0,68,0.00,,---,0.00,VWS V14.01,2013-02-01 05:47:00,
2013-02-01 00:52:00,47.6,37.6,30.27,WNW,290,2.0,5.0,68,0.00,,---,0.00,VWS V14.01,2013-02-01 05:52:00,
2013-02-01 00:57:00,47.6,37.6,30.26,ESE,105,1.0,2.0,68,0.00,,---,0.00,VWS V14.01,2013-02-01 05:57:00,
2013-02-01 01:02:00,47.5,37.8,30.26,NW,325,0.0,2.0,69,0.00,,---,0.00,VWS V14.01,2013-02-01 06:02:00,
2013-02-01 01:07:00,47.3,37.7,30.26,NNE,17,2.0,3.0,69,0.00,,---,0.00,VWS V14.01,2013-02-01 06:07:00,
2013-02-01 01:12:00,47.5,37.8,30.26,NNE,13,1.0,4.0,69,0.00,,---,0.00,VWS V14.01,2013-02-01 06:12:00,
2013-02-01 01:17:00,47.5,37.8,30.26,NNE,15,0.0,2.0,69,0.00,,---,0.00,VWS V14.01,2013-02-01 06:17:00,
2013-02-01 01:22:00,47.3,37.7,30.26,NNW,342,0.0,1.0,69,0.00,,---,0.00,VWS V14.01,2013-02-01 06:22:00,
2013-02-01 01:27:00,47.0,37.7,30.26,West,276,0.0,0.0,70,0.00,,---,0.00,VWS V14.01,2013-02-01 06:27:00,
2013-02-01 01:32:00,46.9,37.6,30.26,East,85,0.0,1.0,70,0.00,,---,0.00,VWS V14.01,2013-02-01 06:32:00,
2013-02-01 01:37:00,46.9,37.6,30.26,ENE,75,0.0,1.0,70,0.00,,---,0.00,VWS V14.01,2013-02-01 06:37:00,
2013-02-01 01:42:00,46.6,37.7,30.26,East,86,1.0,3.0,71,0.00,,---,0.00,VWS V14.01,2013-02-01 06:42:00,
2013-02-01 01:47:00,46.5,37.6,30.26,NW,305,2.0,3.0,71,0.00,,---,0.00,VWS V14.01,2013-02-01 06:47:00,
2013-02-01 01:52:00,46.3,37.8,30.26,NW,304,0.0,1.0,72,0.00,,---,0.00,VWS V14.01,2013-02-01 06:52:00,
2013-02-01 01:57:00,46.1,37.6,30.26,NE,54,0.0,1.0,72,0.00,,---,0.00,VWS V14.01,2013-02-01 06:57:00,
2013-02-01 02:02:00,45.9,37.8,30.26,NNE,29,0.0,0.0,73,0.00,,---,0.00,VWS V14.01,2013-02-01 07:02:00,
2013-02-01 02:07:00,45.8,37.7,30.26,West,280,0.0,0.0,73,0.00,,---,0.00,VWS V14.01,2013-02-01 07:07:00,
2013-02-01 02:12:00,45.4,37.3,30.26,West,280,0.0,0.0,73,0.00,,---,0.00,VWS V14.01,2013-02-01 07:12:00,
2013-02-01 02:17:00,45.1,37.3,30.26,West,280,0.0,0.0,74,0.00,,---,0.00,VWS V14.01,2013-02-01 07:17:00,
2013-02-01 02:22:00,45.0,37.6,30.26,NNE,18,0.0,0.0,75,0.00,,---,0.00,VWS V14.01,2013-02-01 07:22:00,
2013-02-01 02:27:00,44.7,37.3,30.26,NNE,17,0.0,0.0,75,0.00,,---,0.00,VWS V14.01,2013-02-01 07:27:00,
2013-02-01 02:32:00,44.5,37.4,30.26,NNW,331,0.0,0.0,76,0.00,,---,0.00,VWS V14.01,2013-02-01 07:32:00,
2013-02-01 02:37:00,44.1,37.4,30.26,NNW,331,1.0,1.0,77,0.00,,---,0.00,VWS V14.01,2013-02-01 07:37:00,
2013-02-01 02:42:00,43.9,37.5,30.26,NNW,328,0.0,0.0,78,0.00,,---,0.00,VWS V14.01,2013-02-01 07:42:00,
2013-02-01 02:47:00,43.5,37.1,30.26,NNW,329,0.0,0.0,78,0.00,,---,0.00,VWS V14.01,2013-02-01 07:47:00,
2013-02-01 02:52:00,43.0,36.9,30.26,NNW,328,0.0,0.0,79,0.00,,---,0.00,VWS V14.01,2013-02-01 07:52:00,
2013-02-01 02:57:00,42.7,37.3,30.26,NNW,329,0.0,0.0,81,0.00,,---,0.00,VWS V14.01,2013-02-01 07:57:00,
2013-02-01 03:02:00,42.5,37.4,30.26,NNW,328,0.0,0.0,82,0.00,,---,0.00,VWS V14.01,2013-02-01 08:02:00,
2013-02-01 03:07:00,42.2,37.1,30.26,NNW,329,0.0,0.0,82,0.00,,---,0.00,VWS V14.01,2013-02-01 08:07:00,
2013-02-01 03:12:00,42.1,37.3,30.26,NNW,332,0.0,0.0,83,0.00,,---,0.00,VWS V14.01,2013-02-01 08:12:00,
2013-02-01 03:17:00,42.3,37.5,30.26,NNE,22,0.0,0.0,83,0.00,,---,0.00,VWS V14.01,2013-02-01 08:17:00,
2013-02-01 03:22:00,42.6,37.8,30.26,West,263,1.0,2.0,83,0.00,,---,0.00,VWS V14.01,2013-02-01 08:22:00,
2013-02-01 03:27:00,43.1,38.0,30.26,WNW,298,1.0,3.0,82,0.00,,---,0.00,VWS V14.01,2013-02-01 08:27:00,
2013-02-01 03:32:00,43.4,38.0,30.25,WNW,295,0.0,0.0,81,0.00,,---,0.00,VWS V14.01,2013-02-01 08:32:00,
2013-02-01 03:37:00,43.4,38.0,30.25,NNW,339,1.0,1.0,81,0.00,,---,0.00,VWS V14.01,2013-02-01 08:37:00,
2013-02-01 03:42:00,43.5,38.1,30.25,NW,316,1.0,2.0,81,0.00,,---,0.00,VWS V14.01,2013-02-01 08:42:00,
2013-02-01 03:47:00,43.8,38.0,30.25,NNW,345,1.0,2.0,80,0.00,,---,0.00,VWS V14.01,2013-02-01 08:47:00,
2013-02-01 03:52:00,43.7,38.0,30.26,NW,316,2.0,2.0,80,0.00,,---,0.00,VWS V14.01,2013-02-01 08:52:00,
2013-02-01 03:57:00,43.5,38.1,30.26,WNW,292,1.0,1.0,81,0.00,,---,0.00,VWS V14.01,2013-02-01 08:57:00,
2013-02-01 04:02:00,43.6,38.2,30.26,WNW,300,2.0,2.0,81,0.00,,---,0.00,VWS V14.01,2013-02-01 09:02:00,
2013-02-01 04:07:00,43.7,38.3,30.26,NNW,341,0.0,1.0,81,0.00,,---,0.00,VWS V14.01,2013-02-01 09:07:00,
2013-02-01 04:12:00,43.6,38.2,30.26,NNW,344,1.0,1.0,81,0.00,,---,0.00,VWS V14.01,2013-02-01 09:12:00,
2013-02-01 04:17:00,43.9,38.5,30.27,NW,322,2.0,2.0,81,0.00,,---,0.00,VWS V14.01,2013-02-01 09:17:00,
2013-02-01 04:22:00,43.9,38.5,30.26,NNE,23,1.0,2.0,81,0.00,,---,0.00,VWS V14.01,2013-02-01 09:22:00,
2013-02-01 04:27:00,44.0,38.5,30.26,NE,34,1.0,1.0,81,0.00,,---,0.00,VWS V14.01,2013-02-01 09:27:00,
2013-02-01 04:32:00,44.0,38.5,30.26,West,280,0.0,2.0,81,0.00,,---,0.00,VWS V14.01,2013-02-01 09:32:00,
2013-02-01 04:37:00,44.0,38.2,30.27,North,1,1.0,2.0,80,0.00,,---,0.00,VWS V14.01,2013-02-01 09:37:00,
2013-02-01 04:42:00,44.0,38.2,30.27,NE,54,0.0,1.0,80,0.00,,---,0.00,VWS V14.01,2013-02-01 09:42:00,
2013-02-01 04:47:00,44.0,38.2,30.27,East,86,1.0,1.0,80,0.00,,---,0.00,VWS V14.01,2013-02-01 09:47:00,
2013-02-01 04:52:00,44.0,38.2,30.27,North,6,1.0,3.0,80,0.00,,---,0.00,VWS V14.01,2013-02-01 09:52:00,
2013-02-01 04:57:00,44.2,38.4,30.27,NW,325,0.0,1.0,80,0.00,,---,0.00,VWS V14.01,2013-02-01 09:57:00,
2013-02-01 05:02:00,44.5,38.4,30.27,ENE,71,5.0,5.0,79,0.00,,---,0.00,VWS V14.01,2013-02-01 10:02:00,
2013-02-01 05:07:00,44.7,38.3,30.27,East,86,0.0,1.0,78,0.00,,---,0.00,VWS V14.01,2013-02-01 10:07:00,
2013-02-01 05:12:00,44.6,38.2,30.28,ENE,68,1.0,2.0,78,0.00,,---,0.00,VWS V14.01,2013-02-01 10:12:00,
2013-02-01 05:17:00,44.4,38.3,30.27,ENE,75,0.0,1.0,79,0.00,,---,0.00,VWS V14.01,2013-02-01 10:17:00,
2013-02-01 05:22:00,44.3,38.2,30.27,NNE,26,2.0,3.0,79,0.00,,---,0.00,VWS V14.01,2013-02-01 10:22:00,
2013-02-01 05:27:00,44.2,37.8,30.28,NNW,333,1.0,1.0,78,0.00,,---,0.00,VWS V14.01,2013-02-01 10:27:00,
2013-02-01 05:32:00,44.0,37.9,30.28,NNE,19,0.0,2.0,79,0.00,,---,0.00,VWS V14.01,2013-02-01 10:32:00,
2013-02-01 05:37:00,44.0,37.9,30.28,NNW,335,0.0,2.0,79,0.00,,---,0.00,VWS V14.01,2013-02-01 10:37:00,
2013-02-01 05:42:00,44.0,37.6,30.28,NNW,328,0.0,1.0,78,0.00,,---,0.00,VWS V14.01,2013-02-01 10:42:00,
2013-02-01 05:47:00,44.0,37.6,30.28,North,11,2.0,3.0,78,0.00,,---,0.00,VWS V14.01,2013-02-01 10:47:00,
2013-02-01 05:52:00,44.0,37.6,30.29,NW,323,0.0,1.0,78,0.00,,---,0.00,VWS V14.01,2013-02-01 10:52:00,
2013-02-01 05:57:00,44.1,37.7,30.29,East,101,1.0,3.0,78,0.00,,---,0.00,VWS V14.01,2013-02-01 10:57:00,
2013-02-01 06:02:00,44.1,37.4,30.29,NNE,23,0.0,0.0,77,0.00,,---,0.00,VWS V14.01,2013-02-01 11:02:00,
2013-02-01 06:07:00,43.8,37.4,30.29,NNE,29,1.0,2.0,78,0.00,,---,0.00,VWS V14.01,2013-02-01 11:07:00,
2013-02-01 06:12:00,43.6,37.2,30.30,NW,316,3.0,3.0,78,0.00,,---,0.00,VWS V14.01,2013-02-01 11:12:00,
2013-02-01 06:17:00,43.6,37.5,30.30,NNW,348,0.0,1.0,79,0.00,,---,0.00,VWS V14.01,2013-02-01 11:17:00,
2013-02-01 06:22:00,43.6,37.2,30.30,North,358,0.0,2.0,78,0.00,,---,0.00,VWS V14.01,2013-02-01 11:22:00,
2013-02-01 06:27:00,43.8,37.4,30.30,ENE,76,3.0,4.0,78,0.00,,---,0.00,VWS V14.01,2013-02-01 11:27:00,
2013-02-01 06:32:00,43.9,37.5,30.30,ENE,69,2.0,3.0,78,0.00,,---,0.00,VWS V14.01,2013-02-01 11:32:00,
2013-02-01 06:37:00,44.0,37.3,30.30,NE,34,4.0,4.0,77,0.00,,---,0.00,VWS V14.01,2013-02-01 11:37:00,
2013-02-01 06:42:00,44.1,37.4,30.31,NE,40,4.0,6.0,77,0.00,,---,0.00,VWS V14.01,2013-02-01 11:42:00,
2013-02-01 06:47:00,44.2,37.5,30.31,NW,319,3.0,4.0,77,0.00,,---,0.00,VWS V14.01,2013-02-01 11:47:00,
2013-02-01 06:52:00,44.3,37.6,30.31,NNE,18,3.0,3.0,77,0.00,,---,0.00,VWS V14.01,2013-02-01 11:52:00,
2013-02-01 06:57:00,44.2,37.5,30.31,NNE,16,3.0,5.0,77,0.00,,---,0.00,VWS V14.01,2013-02-01 11:57:00,
2013-02-01 07:02:00,44.1,37.4,30.31,NE,48,1.0,1.0,77,0.00,,---,0.00,VWS V14.01,2013-02-01 12:02:00,
2013-02-01 07:07:00,44.1,37.4,30.31,NE,53,2.0,6.0,77,0.00,,---,0.00,VWS V14.01,2013-02-01 12:07:00,
2013-02-01 07:12:00,44.1,37.0,30.32,NNW,327,2.0,2.0,76,0.00,,---,0.00,VWS V14.01,2013-02-01 12:12:00,
2013-02-01 07:17:00,44.0,36.9,30.32,North,5,1.0,1.0,76,0.00,,---,0.00,VWS V14.01,2013-02-01 12:17:00,
2013-02-01 07:22:00,44.2,36.8,30.32,NE,46,1.0,2.0,75,0.00,,---,0.00,VWS V14.01,2013-02-01 12:22:00,
2013-02-01 07:27:00,44.4,36.7,30.32,ENE,60,1.0,3.0,74,0.00,,---,0.00,VWS V14.01,2013-02-01 12:27:00,
2013-02-01 07:32:00,44.9,37.1,30.32,WNW,295,1.0,2.0,74,0.00,,---,0.00,VWS V14.01,2013-02-01 12:32:00,
2013-02-01 07:37:00,45.1,37.3,30.32,NW,318,2.0,6.0,74,0.00,,---,0.00,VWS V14.01,2013-02-01 12:37:00,
2013-02-01 07:42:00,45.4,37.3,30.32,NW,319,4.0,7.0,73,0.00,,---,0.00,VWS V14.01,2013-02-01 12:42:00,
2013-02-01 07:47:00,45.6,36.8,30.33,NW,316,6.0,8.0,71,0.00,,---,0.00,VWS V14.01,2013-02-01 12:47:00,
2013-02-01 07:52:00,45.9,36.7,30.33,NNE,31,3.0,7.0,70,0.00,,---,0.00,VWS V14.01,2013-02-01 12:52:00,
2013-02-01 07:57:00,46.3,36.0,30.33,East,79,5.0,6.0,67,0.00,,---,0.00,VWS V14.01,2013-02-01 12:57:00,
2013-02-01 08:02:00,46.7,36.3,30.33,NE,51,4.0,4.0,67,0.00,,---,0.00,VWS V14.01,2013-02-01 13:02:00,
2013-02-01 08:07:00,47.0,35.9,30.33,NNE,33,4.0,4.0,65,0.00,,---,0.00,VWS V14.01,2013-02-01 13:07:00,
2013-02-01 08:12:00,47.4,36.2,30.34,North,358,2.0,4.0,65,0.00,,---,0.00,VWS V14.01,2013-02-01 13:12:00,
2013-02-01 08:17:00,47.8,35.8,30.34,NNW,337,7.0,10.0,63,0.00,,---,0.00,VWS V14.01,2013-02-01 13:17:00,
2013-02-01 08:22:00,48.3,36.3,30.34,NE,43,1.0,2.0,63,0.00,,---,0.00,VWS V14.01,2013-02-01 13:22:00,
2013-02-01 08:27:00,48.8,36.0,30.34,NE,51,3.0,4.0,61,0.00,,---,0.00,VWS V14.01,2013-02-01 13:27:00,
2013-02-01 08:32:00,49.4,36.1,30.34,NNW,342,3.0,5.0,60,0.00,,---,0.00,VWS V14.01,2013-02-01 13:32:00,
2013-02-01 08:37:00,50.1,35.9,30.34,NE,42,10.0,10.0,58,0.00,,---,0.00,VWS V14.01,2013-02-01 13:37:00,
2013-02-01 08:42:00,50.5,35.8,30.35,North,351,3.0,4.0,57,0.00,,---,0.00,VWS V14.01,2013-02-01 13:42:00,
2013-02-01 08:47:00,51.0,35.9,30.35,SSW,208,2.0,7.0,56,0.00,,---,0.00,VWS V14.01,2013-02-01 13:47:00,
2013-02-01 08:52:00,51.4,36.2,30.35,North,358,2.0,5.0,56,0.00,,---,0.00,VWS V14.01,2013-02-01 13:52:00,
2013-02-01 08:57:00,51.9,36.3,30.35,NNE,32,7.0,8.0,55,0.00,,---,0.00,VWS V14.01,2013-02-01 13:57:00,
2013-02-01 09:02:00,52.4,36.7,30.35,North,354,4.0,4.0,55,0.00,,---,0.00,VWS V14.01,2013-02-01 14:02:00,
2013-02-01 09:07:00,52.9,36.7,30.36,NE,42,6.0,9.0,54,0.00,,---,0.00,VWS V14.01,2013-02-01 14:07:00,
2013-02-01 09:12:00,53.2,36.0,30.36,NNE,18,12.0,14.0,52,0.00,,---,0.00,VWS V14.01,2013-02-01 14:12:00,
2013-02-01 09:17:00,53.3,37.1,30.36,NE,46,4.0,7.0,54,0.00,,---,0.00,VWS V14.01,2013-02-01 14:17:00,
2013-02-01 09:22:00,53.7,37.9,30.36,ENE,68,4.0,4.0,55,0.00,,---,0.00,VWS V14.01,2013-02-01 14:22:00,
2013-02-01 09:27:00,54.3,38.5,30.36,NW,319,2.0,10.0,55,0.00,,---,0.00,VWS V14.01,2013-02-01 14:27:00,
2013-02-01 09:32:00,54.5,38.7,30.36,NE,39,3.0,8.0,55,0.00,,---,0.00,VWS V14.01,2013-02-01 14:32:00,
2013-02-01 09:37:00,54.7,38.9,30.36,WSW,250,2.0,5.0,55,0.00,,---,0.00,VWS V14.01,2013-02-01 14:37:00,
2013-02-01 09:42:00,55.4,40.0,30.36,NE,34,4.0,4.0,56,0.00,,---,0.00,VWS V14.01,2013-02-01 14:42:00,
2013-02-01 09:47:00,55.8,39.4,30.35,NNE,13,8.0,11.0,54,0.00,,---,0.00,VWS V14.01,2013-02-01 14:47:00,
2013-02-01 09:52:00,56.0,40.1,30.36,NNE,27,5.0,13.0,55,0.00,,---,0.00,VWS V14.01,2013-02-01 14:52:00,
2013-02-01 09:57:00,56.5,40.5,30.36,NE,43,2.0,8.0,55,0.00,,---,0.00,VWS V14.01,2013-02-01 14:57:00,
2013-02-01 10:02:00,57.1,41.6,30.36,NE,51,2.0,4.0,56,0.00,,---,0.00,VWS V14.01,2013-02-01 15:02:00,
2013-02-01 10:07:00,57.6,41.1,30.36,NE,36,5.0,11.0,54,0.00,,---,0.00,VWS V14.01,2013-02-01 15:07:00,
2013-02-01 10:12:00,57.6,41.6,30.36,ENE,72,2.0,4.0,55,0.00,,---,0.00,VWS V14.01,2013-02-01 15:12:00,
2013-02-01 10:17:00,57.9,41.4,30.36,North,11,4.0,7.0,54,0.00,,---,0.00,VWS V14.01,2013-02-01 15:17:00,
2013-02-01 10:22:00,57.9,41.8,30.36,NE,56,11.0,12.0,55,0.00,,---,0.00,VWS V14.01,2013-02-01 15:22:00,
2013-02-01 10:27:00,58.4,42.3,30.36,East,101,5.0,11.0,55,0.00,,---,0.00,VWS V14.01,2013-02-01 15:27:00,
2013-02-01 10:32:00,59.1,42.0,30.36,NNE,26,9.0,13.0,53,0.00,,---,0.00,VWS V14.01,2013-02-01 15:32:00,
2013-02-01 10:37:00,59.5,42.4,30.36,North,350,9.0,10.0,53,0.00,,---,0.00,VWS V14.01,2013-02-01 15:37:00,
2013-02-01 10:42:00,60.0,42.8,30.36,NW,304,1.0,3.0,53,0.00,,---,0.00,VWS V14.01,2013-02-01 15:42:00,
2013-02-01 10:47:00,60.6,42.9,30.36,East,81,2.0,5.0,52,0.00,,---,0.00,VWS V14.01,2013-02-01 15:47:00,
2013-02-01 10:52:00,60.8,43.1,30.36,ENE,59,4.0,10.0,52,0.00,,---,0.00,VWS V14.01,2013-02-01 15:52:00,
2013-02-01 10:57:00,60.9,43.2,30.36,NNE,13,9.0,9.0,52,0.00,,---,0.00,VWS V14.01,2013-02-01 15:57:00,
2013-02-01 11:02:00,60.8,43.6,30.36,NE,40,6.0,9.0,53,0.00,,---,0.00,VWS V14.01,2013-02-01 16:02:00,
2013-02-01 11:07:00,61.5,44.2,30.36,ESE,121,2.0,5.0,53,0.00,,---,0.00,VWS V14.01,2013-02-01 16:07:00,
2013-02-01 11:12:00,62.2,44.4,30.36,North,1,5.0,11.0,52,0.00,,---,0.00,VWS V14.01,2013-02-01 16:12:00,
2013-02-01 11:17:00,61.6,43.8,30.36,SW,226,8.0,11.0,52,0.00,,---,0.00,VWS V14.01,2013-02-01 16:17:00,
2013-02-01 11:22:00,62.3,44.5,30.36,ENE,67,7.0,11.0,52,0.00,,---,0.00,VWS V14.01,2013-02-01 16:22:00,
2013-02-01 11:27:00,63.2,45.3,30.36,ENE,64,6.0,11.0,52,0.00,,---,0.00,VWS V14.01,2013-02-01 16:27:00,
2013-02-01 11:32:00,63.8,45.3,30.36,SSE,167,2.0,5.0,51,0.00,,---,0.00,VWS V14.01,2013-02-01 16:32:00,
2013-02-01 11:37:00,63.9,45.4,30.36,ENE,60,6.0,6.0,51,0.00,,---,0.00,VWS V14.01,2013-02-01 16:37:00,
2013-02-01 11:41:00,64.2,45.2,30.36,ENE,60,6.0,10.0,50,0.00,,---,0.00,VWS V14.01,2013-02-01 16:41:00,
2013-02-01 11:46:00,63.9,44.9,30.36,NNE,26,6.0,7.0,50,0.00,,---,0.00,VWS V14.01,2013-02-01 16:46:00,
2013-02-01 11:52:00,64.0,45.5,30.36,NNE,23,3.0,5.0,51,0.00,,---,0.00,VWS V14.01,2013-02-01 16:52:00,
2013-02-01 11:57:00,64.6,45.6,30.35,SE,135,4.0,9.0,50,0.00,,---,0.00,VWS V14.01,2013-02-01 16:57:00,
2013-02-01 12:01:00,64.9,45.8,30.35,NNE,25,10.0,12.0,50,0.00,,---,0.00,VWS V14.01,2013-02-01 17:01:00,
2013-02-01 12:06:00,64.7,45.1,30.35,NNE,13,6.0,7.0,49,0.00,,---,0.00,VWS V14.01,2013-02-01 17:06:00,
2013-02-01 12:11:00,65.4,45.2,30.35,WNW,295,6.0,8.0,48,0.00,,---,0.00,VWS V14.01,2013-02-01 17:11:00,
2013-02-01 12:16:00,65.8,45.6,30.34,ENE,58,5.0,5.0,48,0.00,,---,0.00,VWS V14.01,2013-02-01 17:16:00,
2013-02-01 12:21:00,66.4,46.1,30.34,East,91,3.0,3.0,48,0.00,,---,0.00,VWS V14.01,2013-02-01 17:21:00,
2013-02-01 12:26:00,66.7,45.3,30.33,NNE,17,3.0,5.0,46,0.00,,---,0.00,VWS V14.01,2013-02-01 17:26:00,
2013-02-01 12:31:00,67.3,46.4,30.33,NNE,25,7.0,9.0,47,0.00,,---,0.00,VWS V14.01,2013-02-01 17:31:00,
2013-02-01 12:36:00,67.3,45.8,30.34,NNW,333,5.0,9.0,46,0.00,,---,0.00,VWS V14.01,2013-02-01 17:36:00,
2013-02-01 12:41:00,68.1,46.0,30.33,West,276,4.0,8.0,45,0.00,,---,0.00,VWS V14.01,2013-02-01 17:41:00,
2013-02-01 12:46:00,67.7,45.0,30.33,NE,44,5.0,5.0,44,0.00,,---,0.00,VWS V14.01,2013-02-01 17:46:00,
2013-02-01 12:51:00,68.4,45.7,30.33,North,8,5.0,6.0,44,0.00,,---,0.00,VWS V14.01,2013-02-01 17:51:00,
2013-02-01 12:56:00,68.1,44.2,30.33,NNE,29,7.0,7.0,42,0.00,,---,0.00,VWS V14.01,2013-02-01 17:56:00,
2013-02-01 13:01:00,68.0,44.7,30.33,NW,319,5.0,10.0,43,0.00,,---,0.00,VWS V14.01,2013-02-01 18:01:00,
2013-02-01 13:06:00,67.6,43.7,30.32,NW,313,4.0,4.0,42,0.00,,---,0.00,VWS V14.01,2013-02-01 18:06:00,
2013-02-01 13:11:00,68.2,41.7,30.32,NNE,24,2.0,5.0,38,0.00,,---,0.00,VWS V14.01,2013-02-01 18:11:00,
2013-02-01 13:16:00,68.4,42.5,30.31,NE,53,6.0,6.0,39,0.00,,---,0.00,VWS V14.01,2013-02-01 18:16:00,
2013-02-01 13:21:00,68.4,43.2,30.31,North,11,1.0,2.0,40,0.00,,---,0.00,VWS V14.01,2013-02-01 18:21:00,
2013-02-01 13:26:00,69.0,44.3,30.31,North,6,2.0,6.0,41,0.00,,---,0.00,VWS V14.01,2013-02-01 18:26:00,
2013-02-01 13:31:00,68.5,43.2,30.31,NE,54,9.0,13.0,40,0.00,,---,0.00,VWS V14.01,2013-02-01 18:31:00,
2013-02-01 13:36:00,68.9,43.6,30.30,NE,51,9.0,9.0,40,0.00,,---,0.00,VWS V14.01,2013-02-01 18:36:00,
2013-02-01 13:41:00,68.7,44.1,30.30,NE,46,8.0,8.0,41,0.00,,---,0.00,VWS V14.01,2013-02-01 18:41:00,
2013-02-01 13:46:00,68.5,43.2,30.30,ENE,71,3.0,5.0,40,0.00,,---,0.00,VWS V14.01,2013-02-01 18:46:00,
2013-02-01 13:51:00,69.5,43.5,30.30,NNE,32,3.0,4.0,39,0.00,,---,0.00,VWS V14.01,2013-02-01 18:51:00,
2013-02-01 13:56:00,69.3,43.3,30.30,East,86,12.0,16.0,39,0.00,,---,0.00,VWS V14.01,2013-02-01 18:56:00,
2013-02-01 14:01:00,69.0,44.3,30.30,ESE,111,2.0,5.0,41,0.00,,---,0.00,VWS V14.01,2013-02-01 19:01:00,
2013-02-01 14:06:00,69.1,41.8,30.30,NE,56,4.0,4.0,37,0.00,,---,0.00,VWS V14.01,2013-02-01 19:06:00,
2013-02-01 14:11:00,69.4,41.3,30.29,East,101,4.0,7.0,36,0.00,,---,0.00,VWS V14.01,2013-02-01 19:11:00,
2013-02-01 14:16:00,70.1,42.7,30.29,NE,42,4.0,5.0,37,0.00,,---,0.00,VWS V14.01,2013-02-01 19:16:00,
2013-02-01 14:21:00,70.6,41.7,30.29,NNW,331,4.0,11.0,35,0.00,,---,0.00,VWS V14.01,2013-02-01 19:21:00,
2013-02-01 14:26:00,70.6,41.7,30.29,NE,42,6.0,11.0,35,0.00,,---,0.00,VWS V14.01,2013-02-01 19:26:00,
2013-02-01 14:31:00,70.3,41.4,30.29,NW,311,4.0,8.0,35,0.00,,---,0.00,VWS V14.01,2013-02-01 19:31:00,
2013-02-01 14:36:00,70.3,40.6,30.28,ENE,58,5.0,5.0,34,0.00,,---,0.00,VWS V14.01,2013-02-01 19:36:00,
2013-02-01 14:41:00,70.5,41.6,30.28,NE,56,4.0,6.0,35,0.00,,---,0.00,VWS V14.01,2013-02-01 19:41:00,
2013-02-01 14:46:00,70.8,41.1,30.28,NNE,27,6.0,7.0,34,0.00,,---,0.00,VWS V14.01,2013-02-01 19:46:00,
2013-02-01 14:51:00,70.4,40.0,30.28,NNW,346,3.0,5.0,33,0.00,,---,0.00,VWS V14.01,2013-02-01 19:51:00,
2013-02-01 14:56:00,70.1,38.1,30.28,NW,326,6.0,6.0,31,0.00,,---,0.00,VWS V14.01,2013-02-01 19:56:00,
2013-02-01 15:01:00,70.4,39.2,30.28,East,85,5.0,6.0,32,0.00,,---,0.00,VWS V14.01,2013-02-01 20:01:00,
2013-02-01 15:06:00,70.4,40.0,30.27,NNE,30,9.0,10.0,33,0.00,,---,0.00,VWS V14.01,2013-02-01 20:06:00,
2013-02-01 15:11:00,70.8,39.5,30.27,NE,50,7.0,9.0,32,0.00,,---,0.00,VWS V14.01,2013-02-01 20:11:00,
2013-02-01 15:16:00,70.7,40.2,30.27,East,97,4.0,4.0,33,0.00,,---,0.00,VWS V14.01,2013-02-01 20:16:00,
2013-02-01 15:21:00,70.5,40.0,30.27,NE,56,6.0,6.0,33,0.00,,---,0.00,VWS V14.01,2013-02-01 20:21:00,
2013-02-01 15:26:00,70.6,40.1,30.27,NE,43,6.0,7.0,33,0.00,,---,0.00,VWS V14.01,2013-02-01 20:26:00,
2013-02-01 15:31:00,71.0,38.9,30.27,ENE,68,8.0,10.0,31,0.00,,---,0.00,VWS V14.01,2013-02-01 20:31:00,
2013-02-01 15:36:00,70.8,40.3,30.27,ENE,75,9.0,11.0,33,0.00,,---,0.00,VWS V14.01,2013-02-01 20:36:00,
2013-02-01 15:41:00,70.5,39.2,30.27,NNE,23,11.0,11.0,32,0.00,,---,0.00,VWS V14.01,2013-02-01 20:41:00,
2013-02-01 15:46:00,70.6,39.3,30.27,North,6,8.0,9.0,32,0.00,,---,0.00,VWS V14.01,2013-02-01 20:46:00,
2013-02-01 15:51:00,70.7,40.2,30.27,NNE,33,3.0,3.0,33,0.00,,---,0.00,VWS V14.01,2013-02-01 20:51:00,
2013-02-01 15:56:00,71.0,39.7,30.27,East,92,4.0,8.0,32,0.00,,---,0.00,VWS V14.01,2013-02-01 20:56:00,
2013-02-01 16:01:00,70.6,40.1,30.27,NE,43,11.0,11.0,33,0.00,,---,0.00,VWS V14.01,2013-02-01 21:01:00,
2013-02-01 16:06:00,70.5,40.0,30.27,NE,53,8.0,9.0,33,0.00,,---,0.00,VWS V14.01,2013-02-01 21:06:00,
2013-02-01 16:11:00,70.4,40.0,30.27,ENE,58,10.0,10.0,33,0.00,,---,0.00,VWS V14.01,2013-02-01 21:11:00,
2013-02-01 16:16:00,70.3,39.9,30.27,ENE,75,9.0,10.0,33,0.00,,---,0.00,VWS V14.01,2013-02-01 21:16:00,
2013-02-01 16:21:00,70.7,41.0,30.27,North,350,3.0,7.0,34,0.00,,---,0.00,VWS V14.01,2013-02-01 21:21:00,
2013-02-01 16:26:00,70.7,40.2,30.27,NNW,347,8.0,9.0,33,0.00,,---,0.00,VWS V14.01,2013-02-01 21:26:00,
2013-02-01 16:31:00,70.4,40.7,30.27,ENE,72,5.0,5.0,34,0.00,,---,0.00,VWS V14.01,2013-02-01 21:31:00,
2013-02-01 16:36:00,70.3,41.4,30.28,NNE,32,7.0,7.0,35,0.00,,---,0.00,VWS V14.01,2013-02-01 21:36:00,
2013-02-01 16:41:00,70.3,40.6,30.27,ENE,57,5.0,8.0,34,0.00,,---,0.00,VWS V14.01,2013-02-01 21:41:00,
2013-02-01 16:46:00,70.0,41.1,30.27,ENE,72,2.0,2.0,35,0.00,,---,0.00,VWS V14.01,2013-02-01 21:46:00,
2013-02-01 16:51:00,70.0,41.1,30.28,NW,314,2.0,3.0,35,0.00,,---,0.00,VWS V14.01,2013-02-01 21:51:00,
2013-02-01 16:56:00,70.2,42.0,30.28,NE,52,4.0,4.0,36,0.00,,---,0.00,VWS V14.01,2013-02-01 21:56:00,
2013-02-01 17:01:00,69.9,41.0,30.28,East,98,2.0,3.0,35,0.00,,---,0.00,VWS V14.01,2013-02-01 22:01:00,
2013-02-01 17:06:00,69.6,41.5,30.28,NNE,27,3.0,4.0,36,0.00,,---,0.00,VWS V14.01,2013-02-01 22:06:00,
2013-02-01 17:11:00,69.5,41.4,30.28,NNE,32,3.0,6.0,36,0.00,,---,0.00,VWS V14.01,2013-02-01 22:11:00,
2013-02-01 17:16:00,69.5,42.1,30.28,NNE,15,1.0,2.0,37,0.00,,---,0.00,VWS V14.01,2013-02-01 22:16:00,
2013-02-01 17:21:00,69.3,41.2,30.28,NNW,330,5.0,8.0,36,0.00,,---,0.00,VWS V14.01,2013-02-01 22:21:00,
2013-02-01 17:26:00,69.0,41.0,30.28,NNW,337,1.0,5.0,36,0.00,,---,0.00,VWS V14.01,2013-02-01 22:26:00,
2013-02-01 17:31:00,68.8,41.5,30.28,NE,44,6.0,6.0,37,0.00,,---,0.00,VWS V14.01,2013-02-01 22:31:00,
2013-02-01 17:36:00,68.6,41.3,30.28,NNE,26,3.0,3.0,37,0.00,,---,0.00,VWS V14.01,2013-02-01 22:36:00,
2013-02-01 17:41:00,68.4,41.8,30.28,NNE,15,1.0,2.0,38,0.00,,---,0.00,VWS V14.01,2013-02-01 22:41:00,
2013-02-01 17:46:00,68.1,42.2,30.28,NNE,32,2.0,2.0,39,0.00,,---,0.00,VWS V14.01,2013-02-01 22:46:00,
2013-02-01 17:51:00,67.7,41.9,30.28,NNE,30,2.0,2.0,39,0.00,,---,0.00,VWS V14.01,2013-02-01 22:51:00,
2013-02-01 17:56:00,66.9,41.2,30.28,NE,37,4.0,6.0,39,0.00,,---,0.00,VWS V14.01,2013-02-01 22:56:00,
2013-02-01 18:01:00,66.3,41.3,30.28,ENE,68,3.0,4.0,40,0.00,,---,0.00,VWS V14.01,2013-02-01 23:01:00,
2013-02-01 18:06:00,65.6,40.7,30.28,NNE,31,2.0,2.0,40,0.00,,---,0.00,VWS V14.01,2013-02-01 23:06:00,
2013-02-01 18:11:00,65.1,40.8,30.28,ENE,72,3.0,4.0,41,0.00,,---,0.00,VWS V14.01,2013-02-01 23:11:00,
2013-02-01 18:16:00,64.6,41.0,30.28,NNW,332,1.0,1.0,42,0.00,,---,0.00,VWS V14.01,2013-02-01 23:16:00,
2013-02-01 18:21:00,64.1,41.2,30.28,East,96,1.0,1.0,43,0.00,,---,0.00,VWS V14.01,2013-02-01 23:21:00,
2013-02-01 18:26:00,63.5,40.6,30.28,West,271,0.0,0.0,43,0.00,,---,0.00,VWS V14.01,2013-02-01 23:26:00,
2013-02-01 18:31:00,62.8,41.2,30.29,NNE,30,0.0,0.0,45,0.00,,---,0.00,VWS V14.01,2013-02-01 23:31:00,
2013-02-01 18:36:00,62.4,40.2,30.29,ENE,65,0.0,1.0,44,0.00,,---,0.00,VWS V14.01,2013-02-01 23:36:00,
2013-02-01 18:41:00,62.1,40.0,30.29,NNW,346,0.0,0.0,44,0.00,,---,0.00,VWS V14.01,2013-02-01 23:41:00,